This is the latest recevied weather packets stored in our database for station/object OE3APM-13. If no packets are shown the sender has not sent any weather packets the latest 10 day(s).
| Time | Temp. | Humidity | Pressure | Rain* | Wind** | Luminosity | Snow |
|---|---|---|---|---|---|---|---|
| 1788596390 | 15.56° C | 88% | 1021.1 hPa | 0 mm | - | 255 W/m² | - |
| 1788596080 | 15° C | 88% | 1021.1 hPa | 0.25 mm | - | 236 W/m² | - |
| 1788595780 | 15° C | 88% | 1021.1 hPa | 0.25 mm | - | 239 W/m² | - |
| 1788595479 | 15° C | 89% | 1021.2 hPa | 0.25 mm | - | 199 W/m² | - |
| 1788595174 | 15° C | 89% | 1021.1 hPa | 0.25 mm | - | 246 W/m² | - |
| 1788594864 | 14.44° C | 90% | 1021.1 hPa | 0.25 mm | - | 257 W/m² | - |
| 1788594561 | 14.44° C | 91% | 1021.1 hPa | 0.25 mm | - | 283 W/m² | - |
| 1788594258 | 14.44° C | 91% | 1021 hPa | 0.25 mm | - | 243 W/m² | - |
| 1788593948 | 13.89° C | 90% | 1021 hPa | 0.51 mm | - | 127 W/m² | - |
| 1788593643 | 13.89° C | 90% | 1020.9 hPa | 0.51 mm | - | 90 W/m² | - |
| 1788593334 | 13.89° C | 90% | 1020.7 hPa | 0.51 mm | - | 125 W/m² | - |
| 1788593033 | 13.89° C | 90% | 1020.5 hPa | 0.51 mm | - | 121 W/m² | - |
| 1788592726 | 13.89° C | 90% | 1020.2 hPa | 0.51 mm | - | 100 W/m² | - |
| 1788592422 | 13.89° C | 90% | 1020.2 hPa | 0.51 mm | - | 97 W/m² | - |
| 1788592120 | 13.89° C | 89% | 1020 hPa | 0.51 mm | - | 39 W/m² | - |
| 1788591821 | 13.89° C | 89% | 1019.8 hPa | 0.51 mm | - | 79 W/m² | - |
| 1788591518 | 13.89° C | 89% | 1019.6 hPa | 0.51 mm | - | 69 W/m² | - |
| 1788591219 | 13.89° C | 89% | 1019.9 hPa | 0.51 mm | - | 49 W/m² | - |
| 1788590919 | 13.89° C | 89% | 1020.3 hPa | 0.76 mm | - | 49 W/m² | - |
| 1788590619 | 13.89° C | 90% | 1020.4 hPa | 0.76 mm | - | 33 W/m² | - |
| 1788590318 | 13.89° C | 90% | 1020.3 hPa | 1.02 mm | - | 32 W/m² | - |
| 1788590018 | 13.89° C | 89% | 1019.9 hPa | 1.02 mm | - | 62 W/m² | - |
| 1788589717 | 13.89° C | 89% | 1019.9 hPa | 1.27 mm | - | 58 W/m² | - |
| 1788589415 | 13.89° C | 89% | 1020.2 hPa | 1.52 mm | - | 49 W/m² | - |
| 1788589115 | 13.89° C | 88% | 1020.2 hPa | 1.52 mm | - | 49 W/m² | - |
* Rain latest hour (hover to see other rain measurements)
** Current wind speed in m/s (hover to see current wind gust speed)